Flugplatz Schleswig-Kropp (EDXC)

Hier findest Du alle Informationen zum Flugplatz Schleswig-Kropp (EDXC).

Informationen für Piloten zum Flugplatz Schleswig-Kropp

Hier findest Du alle relevanten Informationen, die Du als Pilot benötigst, um Schleswig-Kropp anzufliegen.

Flugplatz: Schleswig-Kropp ICAO-Code: EDXC
Frequenz Turm: 118,675 Mhz GAFOR Gebiet: 4
Frequenz Ground: 118,675 Mhz Mogas: ja
Platzrunde: S/N 600 ft Landegebühr: -
Platzhöhe: - Sunrise: 04:57 Uhr UTC
Pisten: 09/27 - 880 m x 30 m, GRAS Sunset: 17:54 Uhr UTC

Mitglieder, die in Schleswig-Kropp fliegen

Flugwetter am Flugplatz Schleswig-Kropp

Die METAR Information stammen aus EDHK (39.48 km entfernt).

METAR Code:
2017/02/27 08:50
EDHK 270850Z 20012KT 9999 FEW044 BKN056 10/06 Q1001

Flugschulen am Flugplatz Schleswig-Kropp

Am Flugplatz Schleswig-Kropp gibt es eine Flugschule.

Benachbarte Flugplätze und Flugschulen

Es gibt 11 weitere Flugplätze in einem Umkreis von 50 km um den Flugplatz Schleswig-Kropp.

Jetzt anmelden

Passwort vergessen

Umfrage Archiv

In welcher Höhe sollte das max. Leergewicht begrenzt werden, wenn ULs 600 kg MTOW hätten?

max. 350,0 kg
48.7 %
keine Begrenzung
15.4 %
max. 375,0 kg
12.2 %
max. 325,0 kg
10.1 %
max. 400,0 kg
8.4 %
max. 300,0 kg
3.3 %
max. 275,0 kg
1.9 %
Stimmen: 631 | Diskussion (47)
Anzeige: Roland Aircraft
Statistik Alle Mitglieder

Aktuell sind 40 Besucher online.

Anzeige: VFR Sprechfunk Simulator


Anzeige: Pocket FMS